Lid_Strength_Index
3 3 3 3 3 2 2 1 1 0 1 2 2 2 1 2 2 5 9 7 6 2 4 10 10 9 10 10 9 8 11 14 13 12 11 10 9 9 7 7 6 6 6 5 3
3 3 3 3 3 3 2 2 2 1 0 0 1 2 2 2 6 7 4 2 3 2 9 11 11 9 13 12 10 12 12 12 10 10 10 9 9 9 8 8 8 8 5 3 3
3 3 3 3 3 3 3 2 2 2 1 1 0 1 2 3 8 8 2 1 3 3 7 10 10 10 13 12 12 12 14 11 10 8 8 9 9 8 8 10 7 7 6 4 4
3 3 3 3 3 3 3 3 2 2 1 1 1 0 1 5 14 7 2 3 2 3 7 12 11 12 14 14 12 13 10 11 10 8 8 10 8 9 8 8 7 5 4 4 5
2 2 2 3 3 3 3 3 3 2 2 1 1 0 2 7 8 5 2 4 6 3 8 12 12 12 14 13 12 12 11 10 10 10 9 8 9 10 9 8 6 4 4 5 5
-1 0 1 2 2 2 3 3 3 2 2 1 1 1 5 9 4 5 4 6 7 7 7 12 12 11 13 14 13 13 11 11 11 11 10 10 10 9 8 7 6 5 6 5 5
-2 -2 -1 -0 0 1 2 2 3 2 2 1 1 2 6 7 3 4 6 7 6 6 9 9 10 10 13 13 12 12 13 13 13 11 11 9 12 11 9 7 7 6 6 5 4
-2 -2 -2 -2 -2 -1 -0 1 2 2 1 1 1 4 9 2 2 3 5 6 5 5 5 6 9 8 11 12 12 13 14 16 14 11 10 10 16 12 10 8 7 7 6 6 5
-2 -2 -2 -2 -2 -2 -2 -1 -0 1 0 1 4 6 10 1 4 2 4 5 4 5 5 4 6 10 11 14 16 16 20 17 15 12 11 11 13 11 11 10 9 8 7 6 5
-2 -2 -2 -2 -2 -2 -2 -2 -2 -0 1 1 3 8 8 7 3 2 2 4 6 5 6 7 10 13 14 16 20 18 19 17 17 14 12 12 12 11 12 12 10 11 10 9 7
-2 -2 -2 -2 -2 -2 -1 2 4 5 3 8 8 8 6 5 3 4 3 5 6 8 11 9 14 17 15 14 15 16 18 18 16 14 15 14 13 11 10 12 13 13 12 12 11
-2 -2 -1 -2 -2 -2 1 4 4 3 8 4 5 6 5 4 7 5 2 7 8 11 11 11 15 15 13 12 13 15 16 18 17 15 15 16 16 13 12 11 10 11 12 11 10
-2 -1 -1 -1 -2 0 2 3 -0 1 8 7 5 6 7 5 8 7 4 6 9 11 12 14 12 10 12 14 14 15 17 17 17 15 16 17 18 16 14 12 11 10 9 10 10
-1 -1 -1 -1 1 2 3 -0 -0 1 12 12 9 6 6 5 9 4 4 6 9 11 11 12 10 10 11 14 14 16 14 14 15 16 20 17 22 19 16 15 14 12 11 10 11
-2 -1 -0 -0 3 3 2 -1 0 5 21 10 9 3 5 8 8 7 4 7 10 10 10 13 12 12 12 12 11 15 11 12 14 16 17 19 21 21 19 18 17 15 13 12 10
-1 -1 -1 1 2 1 0 -0 3 14 21 15 8 9 10 8 8 7 7 5 7 10 10 10 9 10 11 10 9 11 13 13 14 16 21 20 20 22 19 18 17 16 15 13 12
-1 -1 0 1 4 0 1 4 14 20 14 14 12 10 10 11 10 10 10 11 13 15 15 12 12 11 11 13 10 11 15 19 20 22 24 21 20 20 18 17 16 15 15 15 15
-1 -1 1 2 1 2 3 10 20 19 21 12 10 10 12 11 11 12 11 13 10 11 14 16 18 12 11 13 14 12 13 18 22 22 22 18 22 21 17 15 14 14 14 14 14
-1 2 4 4 2 3 8 15 16 18 12 11 11 13 13 11 11 12 12 13 11 10 15 16 16 10 10 10 11 14 15 13 16 19 20 20 20 17 16 15 14 14 13 12 12
4 5 6 2 2 6 12 15 15 11 9 9 14 12 15 14 14 13 14 11 11 9 8 12 16 11 10 9 10 12 12 16 16 25 25 20 21 21 18 16 15 14 13 12 12
6 11 5 2 4 10 18 20 16 9 9 10 12 14 13 15 13 14 13 11 10 11 10 11 13 14 11 13 13 12 14 14 15 18 22 24 21 17 16 15 15 14 13 12 11
10 15 3 2 13 14 19 17 8 9 10 11 10 10 12 12 14 14 15 12 9 9 12 11 13 16 14 11 9 10 12 12 16 18 18 18 20 15 15 15 14 13 12 12 12
9 8 2 4 18 22 18 13 9 10 9 13 12 10 10 12 16 13 12 9 9 10 12 11 13 17 16 13 11 13 11 11 12 14 17 20 19 14 14 15 13 12 11 11 11
12 14 8 7 11 18 21 17 15 8 10 8 12 11 11 12 11 13 12 9 9 9 8 9 12 16 18 16 14 15 14 12 13 17 16 16 16 16 15 15 14 13 13 11 11
13 16 16 13 11 13 13 12 12 13 11 8 10 11 14 17 12 13 12 11 9 8 8 10 16 14 13 12 13 14 14 14 14 14 16 14 14 13 13 13 12 12 12 12 11
13 14 14 12 15 15 14 14 11 11 11 13 12 9 12 16 13 13 11 12 12 10 10 9 14 14 16 13 12 15 14 14 14 14 13 13 13 9 11 12 12 12 12 11 11
9 8 11 10 11 15 19 15 11 9 9 8 9 9 10 9 9 9 9 9 10 11 12 12 15 17 20 14 14 22 17 14 14 14 13 15 12 9 10 10 10 10 11 10 10